Time,TemperatureF,DewpointF,PressureIn,WindDirection,WindDirectionDegrees,WindSpeedMPH,WindSpeedGustMPH,Humidity,HourlyPrecipIn,Conditions,Clouds,dailyrainin,SoftwareType,DateUTC
2013-06-24 00:01:00,71.9,70.1,30.06,SW,225,0.0,1.0,94,0.00,,,0.00,Wunderground v.1.15,2013-06-24 04:01:00,
2013-06-24 00:02:00,71.9,70.1,30.06,SSW,207,0.0,1.0,94,0.00,,,0.00,Wunderground v.1.15,2013-06-24 04:02:00,
2013-06-24 00:03:00,71.9,70.0,30.06,SSW,207,0.0,-999.0,94,-99.99,,,0.00,weatherlink.com 1.10,2013-06-24 04:03:00,
2013-06-24 00:08:00,71.9,70.1,30.06,South,170,3.0,3.0,94,0.00,,,0.00,Wunderground v.1.15,2013-06-24 04:08:00,
2013-06-24 00:12:00,72.0,70.2,30.06,SSW,196,3.0,5.0,94,0.00,,,0.00,Wunderground v.1.15,2013-06-24 04:12:00,
2013-06-24 00:17:00,72.0,70.2,30.06,SSW,196,0.0,5.0,94,0.00,,,0.00,Wunderground v.1.15,2013-06-24 04:17:00,
2013-06-24 00:23:00,72.0,70.2,30.06,South,187,0.0,1.0,94,0.00,,,0.00,Wunderground v.1.15,2013-06-24 04:23:00,
2013-06-24 00:28:00,71.9,70.1,30.06,SSE,157,0.0,3.0,94,0.00,,,0.00,Wunderground v.1.15,2013-06-24 04:28:00,
2013-06-24 00:33:00,71.9,70.1,30.06,SSW,195,0.0,3.0,94,0.00,,,0.00,Wunderground v.1.15,2013-06-24 04:33:00,
2013-06-24 00:39:00,71.9,70.1,30.06,SSE,162,0.0,3.0,94,0.00,,,0.00,Wunderground v.1.15,2013-06-24 04:39:00,
2013-06-24 00:44:00,71.8,70.0,30.06,NE,55,0.0,1.0,94,0.00,,,0.00,Wunderground v.1.15,2013-06-24 04:44:00,
2013-06-24 00:50:00,71.8,70.0,30.05,SW,220,0.0,0.0,94,0.00,,,0.00,Wunderground v.1.15,2013-06-24 04:50:00,
2013-06-24 00:55:00,71.7,69.9,30.06,South,179,0.0,1.0,94,0.00,,,0.00,Wunderground v.1.15,2013-06-24 04:55:00,
2013-06-24 01:00:00,71.7,69.9,30.05,NNW,332,0.0,0.0,94,0.00,,,0.00,Wunderground v.1.15,2013-06-24 05:00:00,
2013-06-24 01:06:00,71.6,69.8,30.05,SE,128,0.0,0.0,94,0.00,,,0.00,Wunderground v.1.15,2013-06-24 05:06:00,
2013-06-24 01:11:00,71.6,69.8,30.05,SE,143,0.0,0.0,94,0.00,,,0.00,Wunderground v.1.15,2013-06-24 05:11:00,
2013-06-24 01:16:00,71.5,69.7,30.05,NNE,28,0.0,0.0,94,0.00,,,0.00,Wunderground v.1.15,2013-06-24 05:16:00,
2013-06-24 01:22:00,71.5,69.7,30.05,NNE,18,1.0,1.0,94,0.00,,,0.00,Wunderground v.1.15,2013-06-24 05:22:00,
2013-06-24 01:28:00,71.4,69.6,30.05,NE,34,1.0,1.0,94,0.00,,,0.00,Wunderground v.1.15,2013-06-24 05:28:00,
2013-06-24 01:33:00,71.5,69.7,30.05,West,273,0.0,0.0,94,0.00,,,0.00,Wunderground v.1.15,2013-06-24 05:33:00,
2013-06-24 01:38:00,71.3,69.5,30.05,West,277,0.0,0.0,94,0.00,,,0.00,Wunderground v.1.15,2013-06-24 05:38:00,
2013-06-24 01:43:00,71.3,69.5,30.05,WNW,303,1.0,1.0,94,0.00,,,0.00,Wunderground v.1.15,2013-06-24 05:43:00,
2013-06-24 01:48:00,71.2,69.7,30.04,SSW,212,0.0,1.0,95,0.00,,,0.00,Wunderground v.1.15,2013-06-24 05:48:00,
2013-06-24 01:53:00,71.2,69.7,30.05,North,360,0.0,0.0,95,0.00,,,0.00,Wunderground v.1.15,2013-06-24 05:53:00,
2013-06-24 01:58:00,71.3,69.8,30.04,SSE,167,0.0,0.0,95,0.00,,,0.00,Wunderground v.1.15,2013-06-24 05:58:00,
2013-06-24 02:03:00,71.3,69.8,30.04,North,11,0.0,1.0,95,0.00,,,0.00,Wunderground v.1.15,2013-06-24 06:03:00,
2013-06-24 02:08:00,71.2,69.7,30.04,ENE,72,0.0,2.0,95,0.00,,,0.00,Wunderground v.1.15,2013-06-24 06:08:00,
2013-06-24 02:13:00,71.2,69.7,30.04,SE,143,0.0,1.0,95,0.00,,,0.00,Wunderground v.1.15,2013-06-24 06:13:00,
2013-06-24 02:18:00,71.2,69.7,30.04,SSW,213,0.0,1.0,95,0.00,,,0.00,Wunderground v.1.15,2013-06-24 06:18:00,
2013-06-24 02:23:00,71.2,69.7,30.04,West,264,0.0,1.0,95,0.00,,,0.00,Wunderground v.1.15,2013-06-24 06:23:00,
2013-06-24 02:29:00,71.2,69.7,30.04,SSW,194,0.0,4.0,95,0.00,,,0.00,Wunderground v.1.15,2013-06-24 06:29:00,
2013-06-24 02:34:00,71.2,69.7,30.04,SSE,168,0.0,1.0,95,0.00,,,0.00,Wunderground v.1.15,2013-06-24 06:34:00,
2013-06-24 02:39:00,71.2,69.7,30.04,SSE,168,1.0,1.0,95,0.00,,,0.00,Wunderground v.1.15,2013-06-24 06:39:00,
2013-06-24 02:44:00,71.1,69.6,30.03,SSE,168,0.0,0.0,95,0.00,,,0.00,Wunderground v.1.15,2013-06-24 06:44:00,
2013-06-24 02:50:00,71.1,69.6,30.03,South,186,0.0,1.0,95,0.00,,,0.00,Wunderground v.1.15,2013-06-24 06:50:00,
2013-06-24 02:55:00,71.1,69.6,30.03,NE,38,0.0,2.0,95,0.00,,,0.00,Wunderground v.1.15,2013-06-24 06:55:00,
2013-06-24 03:00:00,71.0,69.5,30.04,NE,38,0.0,0.0,95,0.00,,,0.00,Wunderground v.1.15,2013-06-24 07:00:00,
2013-06-24 03:05:00,71.0,69.8,30.04,South,184,0.0,2.0,96,0.00,,,0.00,Wunderground v.1.15,2013-06-24 07:05:00,
2013-06-24 03:10:00,71.0,69.8,30.04,South,186,0.0,0.0,96,0.00,,,0.00,Wunderground v.1.15,2013-06-24 07:10:00,
2013-06-24 03:15:00,71.0,69.8,30.03,South,186,0.0,0.0,96,0.00,,,0.00,Wunderground v.1.15,2013-06-24 07:15:00,
2013-06-24 03:20:00,71.0,69.8,30.03,South,186,0.0,0.0,96,0.00,,,0.00,Wunderground v.1.15,2013-06-24 07:20:00,
2013-06-24 03:25:00,71.0,69.8,30.03,South,186,0.0,0.0,96,0.00,,,0.00,Wunderground v.1.15,2013-06-24 07:25:00,
2013-06-24 03:30:00,71.0,69.8,30.03,SE,127,0.0,0.0,96,0.00,,,0.00,Wunderground v.1.15,2013-06-24 07:30:00,
2013-06-24 03:36:00,71.1,69.9,30.03,SE,127,0.0,0.0,96,0.00,,,0.00,Wunderground v.1.15,2013-06-24 07:36:00,
2013-06-24 03:41:00,71.1,69.9,30.03,ENE,67,0.0,0.0,96,0.00,,,0.00,Wunderground v.1.15,2013-06-24 07:41:00,
2013-06-24 03:46:00,71.0,69.8,30.03,ENE,67,0.0,0.0,96,0.00,,,0.00,Wunderground v.1.15,2013-06-24 07:46:00,
2013-06-24 03:51:00,71.1,69.9,30.03,ENE,67,0.0,0.0,96,0.00,,,0.00,Wunderground v.1.15,2013-06-24 07:51:00,
2013-06-24 03:56:00,71.1,69.9,30.03,SSW,202,0.0,2.0,96,0.00,,,0.00,Wunderground v.1.15,2013-06-24 07:56:00,
2013-06-24 04:01:00,71.1,69.9,30.02,SSW,202,0.0,0.0,96,0.00,,,0.00,Wunderground v.1.15,2013-06-24 08:01:00,
2013-06-24 04:07:00,71.1,69.9,30.02,SSW,202,0.0,0.0,96,0.00,,,0.00,Wunderground v.1.15,2013-06-24 08:07:00,
2013-06-24 04:12:00,71.1,69.9,30.02,SSE,155,0.0,0.0,96,0.00,,,0.00,Wunderground v.1.15,2013-06-24 08:12:00,
2013-06-24 04:17:00,71.2,70.0,30.02,SSE,155,0.0,0.0,96,0.00,,,0.00,Wunderground v.1.15,2013-06-24 08:17:00,
2013-06-24 04:22:00,71.2,70.0,30.01,SSE,155,0.0,0.0,96,0.00,,,0.00,Wunderground v.1.15,2013-06-24 08:22:00,
2013-06-24 04:27:00,71.2,70.3,30.01,SW,231,0.0,1.0,97,0.00,,,0.00,Wunderground v.1.15,2013-06-24 08:27:00,
2013-06-24 04:32:00,71.3,70.1,30.01,South,169,1.0,1.0,96,0.00,,,0.00,Wunderground v.1.15,2013-06-24 08:32:00,
2013-06-24 04:38:00,71.3,70.1,30.02,NNE,21,0.0,1.0,96,0.00,,,0.00,Wunderground v.1.15,2013-06-24 08:38:00,
2013-06-24 04:43:00,71.2,70.0,30.01,West,266,0.0,1.0,96,0.00,,,0.00,Wunderground v.1.15,2013-06-24 08:43:00,
2013-06-24 04:48:00,71.3,70.4,30.01,West,267,1.0,1.0,97,0.00,,,0.00,Wunderground v.1.15,2013-06-24 08:48:00,
2013-06-24 04:53:00,71.2,70.0,30.01,SW,232,0.0,0.0,96,0.00,,,0.00,Wunderground v.1.15,2013-06-24 08:53:00,
2013-06-24 04:58:00,71.3,70.4,30.02,NE,52,0.0,1.0,97,0.00,,,0.00,Wunderground v.1.15,2013-06-24 08:58:00,
2013-06-24 05:03:00,71.2,70.3,30.01,SE,137,0.0,0.0,97,0.00,,,0.00,Wunderground v.1.15,2013-06-24 09:03:00,
2013-06-24 05:08:00,71.3,70.4,30.01,SE,137,0.0,0.0,97,0.00,,,0.00,Wunderground v.1.15,2013-06-24 09:08:00,
2013-06-24 05:13:00,71.3,70.4,30.01,SSW,199,0.0,2.0,97,0.00,,,0.00,Wunderground v.1.15,2013-06-24 09:13:00,
2013-06-24 05:18:00,71.3,70.4,30.01,SSW,192,0.0,2.0,97,0.00,,,0.00,Wunderground v.1.15,2013-06-24 09:18:00,
2013-06-24 05:24:00,71.3,70.4,30.01,SSW,192,0.0,0.0,97,0.00,,,0.00,Wunderground v.1.15,2013-06-24 09:24:00,
2013-06-24 05:29:00,71.3,70.4,30.02,NNW,335,0.0,1.0,97,0.00,,,0.00,Wunderground v.1.15,2013-06-24 09:29:00,
2013-06-24 05:34:00,71.3,70.4,30.02,NNW,335,0.0,1.0,97,0.00,,,0.00,Wunderground v.1.15,2013-06-24 09:34:00,
2013-06-24 05:39:00,71.2,70.3,30.02,WSW,246,0.0,2.0,97,0.00,,,0.00,Wunderground v.1.15,2013-06-24 09:39:00,
2013-06-24 05:44:00,71.2,70.3,30.02,South,190,0.0,2.0,97,0.00,,,0.00,Wunderground v.1.15,2013-06-24 09:44:00,
2013-06-24 05:49:00,71.2,70.3,30.02,South,190,0.0,2.0,97,0.00,,,0.00,Wunderground v.1.15,2013-06-24 09:49:00,
2013-06-24 05:54:00,71.2,70.3,30.02,South,182,0.0,1.0,97,0.00,,,0.00,Wunderground v.1.15,2013-06-24 09:54:00,
2013-06-24 06:00:00,71.2,70.3,30.02,South,182,0.0,0.0,97,0.00,,,0.00,Wunderground v.1.15,2013-06-24 10:00:00,
2013-06-24 06:05:00,71.2,70.3,30.02,South,182,0.0,0.0,97,0.00,,,0.00,Wunderground v.1.15,2013-06-24 10:05:00,
2013-06-24 06:10:00,71.2,70.3,30.01,SSE,157,0.0,0.0,97,0.00,,,0.00,Wunderground v.1.15,2013-06-24 10:10:00,
2013-06-24 06:15:00,71.2,70.3,30.01,South,169,1.0,2.0,97,0.00,,,0.00,Wunderground v.1.15,2013-06-24 10:15:00,
2013-06-24 06:20:00,71.3,70.7,30.01,SSW,196,0.0,0.0,98,0.00,,,0.00,Wunderground v.1.15,2013-06-24 10:20:00,
2013-06-24 06:25:00,71.4,70.5,30.01,SSW,196,0.0,0.0,97,0.00,,,0.00,Wunderground v.1.15,2013-06-24 10:25:00,
2013-06-24 06:30:00,71.4,70.5,30.01,South,186,0.0,0.0,97,0.00,,,0.00,Wunderground v.1.15,2013-06-24 10:30:00,
2013-06-24 06:35:00,71.4,70.5,30.01,North,9,0.0,0.0,97,0.00,,,0.00,Wunderground v.1.15,2013-06-24 10:35:00,
2013-06-24 06:41:00,71.4,70.5,30.02,North,9,0.0,0.0,97,0.00,,,0.00,Wunderground v.1.15,2013-06-24 10:41:00,
2013-06-24 06:47:00,71.4,70.5,30.01,North,9,0.0,1.0,97,0.00,,,0.00,Wunderground v.1.15,2013-06-24 10:47:00,
2013-06-24 06:52:00,71.5,70.6,30.01,North,9,0.0,1.0,97,0.00,,,0.00,Wunderground v.1.15,2013-06-24 10:52:00,
2013-06-24 06:57:00,71.6,71.0,30.01,NE,52,0.0,2.0,98,0.00,,,0.00,Wunderground v.1.15,2013-06-24 10:57:00,
2013-06-24 07:02:00,71.7,71.1,30.01,South,180,0.0,0.0,98,0.00,,,0.00,Wunderground v.1.15,2013-06-24 11:02:00,
2013-06-24 07:07:00,71.9,71.3,30.01,SSE,152,0.0,2.0,98,0.00,,,0.00,Wunderground v.1.15,2013-06-24 11:07:00,
2013-06-24 07:12:00,71.9,71.3,30.02,WNW,300,0.0,1.0,98,0.00,,,0.00,Wunderground v.1.15,2013-06-24 11:12:00,
2013-06-24 07:17:00,72.1,71.5,30.01,NW,325,0.0,1.0,98,0.00,,,0.00,Wunderground v.1.15,2013-06-24 11:17:00,
2013-06-24 07:22:00,72.2,71.3,30.02,North,355,0.0,0.0,97,0.00,,,0.00,Wunderground v.1.15,2013-06-24 11:22:00,
2013-06-24 07:28:00,72.2,71.3,30.02,North,355,0.0,1.0,97,0.00,,,0.00,Wunderground v.1.15,2013-06-24 11:28:00,
2013-06-24 07:33:00,72.3,71.4,30.02,NE,38,1.0,3.0,97,0.00,,,0.00,Wunderground v.1.15,2013-06-24 11:33:00,
2013-06-24 07:39:00,72.4,71.5,30.03,NE,37,0.0,3.0,97,0.00,,,0.00,Wunderground v.1.15,2013-06-24 11:39:00,
2013-06-24 07:44:00,72.5,71.6,30.02,ESE,112,0.0,2.0,97,0.00,,,0.00,Wunderground v.1.15,2013-06-24 11:44:00,
2013-06-24 07:49:00,72.6,71.7,30.02,SSW,198,0.0,2.0,97,0.00,,,0.00,Wunderground v.1.15,2013-06-24 11:49:00,
2013-06-24 07:54:00,72.8,71.9,30.02,SE,142,0.0,1.0,97,0.00,,,0.00,Wunderground v.1.15,2013-06-24 11:54:00,
2013-06-24 08:01:00,73.0,72.1,30.02,SSE,166,0.0,0.0,97,0.00,,,0.00,Wunderground v.1.15,2013-06-24 12:01:00,
2013-06-24 08:06:00,73.1,72.2,30.03,SSE,166,0.0,3.0,97,0.00,,,0.00,Wunderground v.1.15,2013-06-24 12:06:00,
2013-06-24 08:12:00,73.4,72.2,30.02,SSE,161,0.0,1.0,96,0.00,,,0.00,Wunderground v.1.15,2013-06-24 12:12:00,
2013-06-24 08:17:00,73.6,72.4,30.02,SSE,161,0.0,1.0,96,0.00,,,0.00,Wunderground v.1.15,2013-06-24 12:17:00,
2013-06-24 08:22:00,73.8,72.6,30.02,ENE,78,0.0,0.0,96,0.00,,,0.00,Wunderground v.1.15,2013-06-24 12:22:00,
2013-06-24 08:27:00,74.1,72.6,30.01,SSE,159,0.0,2.0,95,0.00,,,0.00,Wunderground v.1.15,2013-06-24 12:27:00,
2013-06-24 08:33:00,74.2,72.7,30.02,NNW,335,1.0,3.0,95,0.00,,,0.00,Wunderground v.1.15,2013-06-24 12:33:00,
2013-06-24 08:38:00,74.4,72.6,30.02,SE,143,0.0,3.0,94,0.00,,,0.00,Wunderground v.1.15,2013-06-24 12:38:00,
2013-06-24 08:43:00,74.6,72.8,30.02,ENE,69,0.0,1.0,94,0.00,,,0.00,Wunderground v.1.15,2013-06-24 12:43:00,
2013-06-24 08:48:00,74.9,73.1,30.02,SSW,205,0.0,1.0,94,0.00,,,0.00,Wunderground v.1.15,2013-06-24 12:48:00,
2013-06-24 08:53:00,75.2,73.4,30.02,SE,136,0.0,1.0,94,0.00,,,0.00,Wunderground v.1.15,2013-06-24 12:53:00,
2013-06-24 08:58:00,75.5,73.3,30.02,SE,125,0.0,1.0,93,0.00,,,0.00,Wunderground v.1.15,2013-06-24 12:58:00,
2013-06-24 09:04:00,75.8,73.6,30.02,SE,124,0.0,0.0,93,0.00,,,0.00,Wunderground v.1.15,2013-06-24 13:04:00,
2013-06-24 09:09:00,76.2,73.7,30.01,SE,145,0.0,2.0,92,0.00,,,0.00,Wunderground v.1.15,2013-06-24 13:09:00,
2013-06-24 09:14:00,76.9,74.7,30.01,SE,145,0.0,1.0,93,0.00,,,0.00,Wunderground v.1.15,2013-06-24 13:14:00,
2013-06-24 09:19:00,77.5,74.3,30.01,SE,145,0.0,1.0,90,0.00,,,0.00,Wunderground v.1.15,2013-06-24 13:19:00,
2013-06-24 09:24:00,78.2,75.0,30.01,SSE,154,1.0,1.0,90,0.00,,,0.00,Wunderground v.1.15,2013-06-24 13:24:00,
2013-06-24 09:29:00,79.0,75.1,30.01,ESE,104,0.0,3.0,88,0.00,,,0.00,Wunderground v.1.15,2013-06-24 13:29:00,
2013-06-24 09:34:00,79.7,74.4,30.01,SSE,148,0.0,2.0,84,0.00,,,0.00,Wunderground v.1.15,2013-06-24 13:34:00,
2013-06-24 09:39:00,80.3,75.4,30.01,SSE,148,0.0,2.0,85,0.00,,,0.00,Wunderground v.1.15,2013-06-24 13:39:00,
2013-06-24 09:44:00,80.9,75.6,30.01,ENE,63,0.0,0.0,84,0.00,,,0.00,Wunderground v.1.15,2013-06-24 13:44:00,
2013-06-24 09:49:00,81.5,76.2,30.00,ENE,63,0.0,0.0,84,0.00,,,0.00,Wunderground v.1.15,2013-06-24 13:49:00,
2013-06-24 09:54:00,82.1,76.8,30.01,ENE,63,0.0,1.0,84,0.00,,,0.00,Wunderground v.1.15,2013-06-24 13:54:00,
2013-06-24 09:59:00,82.7,75.9,30.00,East,98,0.0,2.0,80,0.00,,,0.00,Wunderground v.1.15,2013-06-24 13:59:00,
2013-06-24 10:04:00,83.2,77.1,30.00,SSW,201,0.0,2.0,82,0.00,,,0.00,Wunderground v.1.15,2013-06-24 14:04:00,
2013-06-24 10:10:00,83.8,76.6,30.00,SE,142,0.0,0.0,79,0.00,,,0.00,Wunderground v.1.15,2013-06-24 14:10:00,
2013-06-24 10:15:00,84.3,77.1,30.00,SSE,158,0.0,1.0,79,0.00,,,0.00,Wunderground v.1.15,2013-06-24 14:15:00,
2013-06-24 10:20:00,84.8,76.4,30.00,SSW,198,0.0,0.0,76,0.00,,,0.00,Wunderground v.1.15,2013-06-24 14:20:00,
2013-06-24 10:25:00,85.2,76.8,30.00,South,173,0.0,1.0,76,0.00,,,0.00,Wunderground v.1.15,2013-06-24 14:25:00,
2013-06-24 10:31:00,85.6,77.2,30.00,SSE,167,0.0,0.0,76,0.00,,,0.00,Wunderground v.1.15,2013-06-24 14:31:00,
2013-06-24 10:36:00,85.8,77.4,30.00,South,169,0.0,2.0,76,0.00,,,0.00,Wunderground v.1.15,2013-06-24 14:36:00,
2013-06-24 10:41:00,86.1,76.4,30.00,ENE,64,0.0,1.0,73,0.00,,,0.00,Wunderground v.1.15,2013-06-24 14:41:00,
2013-06-24 10:46:00,86.3,77.8,29.99,NE,39,0.0,1.0,76,0.00,,,0.00,Wunderground v.1.15,2013-06-24 14:46:00,
2013-06-24 10:51:00,86.2,77.7,30.00,East,80,0.0,2.0,76,0.00,,,0.00,Wunderground v.1.15,2013-06-24 14:51:00,
2013-06-24 10:57:00,86.5,77.6,29.99,East,80,0.0,2.0,75,0.00,,,0.00,Wunderground v.1.15,2013-06-24 14:57:00,
2013-06-24 11:02:00,87.0,77.7,29.99,East,84,0.0,0.0,74,0.00,,,0.00,Wunderground v.1.15,2013-06-24 15:02:00,
2013-06-24 11:07:00,87.4,78.5,29.99,East,86,0.0,1.0,75,0.00,,,0.00,Wunderground v.1.15,2013-06-24 15:07:00,
2013-06-24 11:13:00,87.5,78.6,29.99,SSW,202,0.0,5.0,75,0.00,,,0.00,Wunderground v.1.15,2013-06-24 15:13:00,
2013-06-24 11:18:00,87.7,78.8,29.99,SE,128,0.0,5.0,75,0.00,,,0.00,Wunderground v.1.15,2013-06-24 15:18:00,
2013-06-24 11:23:00,87.9,78.6,29.99,SSE,159,0.0,3.0,74,0.00,,,0.00,Wunderground v.1.15,2013-06-24 15:23:00,
2013-06-24 11:29:00,88.1,79.2,29.99,South,178,0.0,3.0,75,0.00,,,0.00,Wunderground v.1.15,2013-06-24 15:29:00,
2013-06-24 11:34:00,88.4,79.1,29.99,South,171,0.0,3.0,74,0.00,,,0.00,Wunderground v.1.15,2013-06-24 15:34:00,
2013-06-24 11:39:00,88.6,78.4,29.99,NNW,344,0.0,3.0,72,0.00,,,0.00,Wunderground v.1.15,2013-06-24 15:39:00,
2013-06-24 11:44:00,88.6,78.4,29.99,South,187,1.0,1.0,72,0.00,,,0.00,Wunderground v.1.15,2013-06-24 15:44:00,
2013-06-24 11:49:00,88.6,76.7,29.99,SSW,193,0.0,2.0,68,0.00,,,0.00,Wunderground v.1.15,2013-06-24 15:49:00,
2013-06-24 11:54:00,88.8,78.6,29.99,SSW,193,0.0,1.0,72,0.00,,,0.00,Wunderground v.1.15,2013-06-24 15:54:00,
2013-06-24 12:00:00,88.8,77.7,29.99,South,184,0.0,0.0,70,0.00,,,0.00,Wunderground v.1.15,2013-06-24 16:00:00,
2013-06-24 12:05:00,88.9,77.8,29.99,SSW,197,0.0,2.0,70,0.00,,,0.00,Wunderground v.1.15,2013-06-24 16:05:00,
2013-06-24 12:10:00,89.1,78.9,29.99,SW,229,0.0,0.0,72,0.00,,,0.00,Wunderground v.1.15,2013-06-24 16:10:00,
2013-06-24 12:15:00,89.2,77.7,29.99,South,179,0.0,1.0,69,0.00,,,0.00,Wunderground v.1.15,2013-06-24 16:15:00,
2013-06-24 12:20:00,89.3,78.7,29.99,SW,233,0.0,0.0,71,0.00,,,0.00,Wunderground v.1.15,2013-06-24 16:20:00,
2013-06-24 12:25:00,89.3,78.2,29.99,SSW,198,2.0,3.0,70,0.00,,,0.00,Wunderground v.1.15,2013-06-24 16:25:00,
2013-06-24 12:30:00,89.5,78.4,29.99,South,173,1.0,1.0,70,0.00,,,0.00,Wunderground v.1.15,2013-06-24 16:30:00,
2013-06-24 12:35:00,89.4,78.3,29.99,South,173,0.0,1.0,70,0.00,,,0.00,Wunderground v.1.15,2013-06-24 16:35:00,
2013-06-24 12:41:00,89.4,78.8,29.99,SSW,194,0.0,7.0,71,0.00,,,0.00,Wunderground v.1.15,2013-06-24 16:41:00,
2013-06-24 12:47:00,89.2,77.3,29.99,WNW,294,0.0,7.0,68,0.00,,,0.00,Wunderground v.1.15,2013-06-24 16:47:00,
2013-06-24 12:52:00,89.1,77.2,29.99,West,268,0.0,2.0,68,0.00,,,0.00,Wunderground v.1.15,2013-06-24 16:52:00,
2013-06-24 12:57:00,88.8,77.7,29.99,SSW,196,0.0,2.0,70,0.00,,,0.00,Wunderground v.1.15,2013-06-24 16:57:00,
2013-06-24 13:02:00,88.6,77.1,29.98,South,171,1.0,3.0,69,0.00,,,0.00,Wunderground v.1.15,2013-06-24 17:02:00,
2013-06-24 13:08:00,88.5,77.5,29.98,South,190,1.0,3.0,70,0.00,,,0.00,Wunderground v.1.15,2013-06-24 17:08:00,
2013-06-24 13:13:00,88.2,76.3,29.98,SW,225,1.0,4.0,68,0.00,,,0.00,Wunderground v.1.15,2013-06-24 17:13:00,
2013-06-24 13:18:00,87.8,76.8,29.99,SSE,165,0.0,4.0,70,0.00,,,0.00,Wunderground v.1.15,2013-06-24 17:18:00,
2013-06-24 13:23:00,87.7,77.5,29.98,ESE,103,0.0,3.0,72,0.00,,,0.00,Wunderground v.1.15,2013-06-24 17:23:00,
2013-06-24 13:28:00,87.7,76.7,29.98,SSE,155,0.0,4.0,70,0.00,,,0.00,Wunderground v.1.15,2013-06-24 17:28:00,
2013-06-24 13:33:00,87.5,76.9,29.98,SSE,161,0.0,4.0,71,0.00,,,0.00,Wunderground v.1.15,2013-06-24 17:33:00,
2013-06-24 13:38:00,87.6,77.0,29.98,NNE,17,0.0,4.0,71,0.00,,,0.00,Wunderground v.1.15,2013-06-24 17:38:00,
2013-06-24 13:43:00,87.7,76.3,29.98,SSW,192,1.0,3.0,69,0.00,,,0.00,Wunderground v.1.15,2013-06-24 17:43:00,
2013-06-24 13:48:00,87.6,76.6,29.97,SE,124,0.0,3.0,70,0.00,,,0.00,Wunderground v.1.15,2013-06-24 17:48:00,
2013-06-24 13:53:00,87.6,75.7,29.97,South,182,0.0,3.0,68,0.00,,,0.00,Wunderground v.1.15,2013-06-24 17:53:00,
2013-06-24 13:59:00,87.7,76.7,29.97,NNE,17,0.0,4.0,70,0.00,,,0.00,Wunderground v.1.15,2013-06-24 17:59:00,
2013-06-24 14:04:00,87.9,75.6,29.97,SE,138,1.0,3.0,67,0.00,,,0.00,Wunderground v.1.15,2013-06-24 18:04:00,
2013-06-24 14:09:00,88.0,75.7,29.97,NNW,334,0.0,3.0,67,0.00,,,0.00,Wunderground v.1.15,2013-06-24 18:09:00,
2013-06-24 14:14:00,88.2,75.4,29.97,WSW,244,2.0,3.0,66,0.00,,,0.00,Wunderground v.1.15,2013-06-24 18:14:00,
2013-06-24 14:19:00,88.3,75.5,29.97,SW,225,0.0,3.0,66,0.00,,,0.00,Wunderground v.1.15,2013-06-24 18:19:00,
2013-06-24 14:24:00,88.3,75.9,29.96,South,180,0.0,3.0,67,0.00,,,0.00,Wunderground v.1.15,2013-06-24 18:24:00,
2013-06-24 14:29:00,88.3,75.5,29.96,South,171,0.0,4.0,66,0.00,,,0.00,Wunderground v.1.15,2013-06-24 18:29:00,
2013-06-24 14:34:00,88.3,75.5,29.96,North,5,0.0,2.0,66,0.00,,,0.00,Wunderground v.1.15,2013-06-24 18:34:00,
2013-06-24 14:39:00,88.3,75.9,29.96,ENE,76,0.0,3.0,67,0.00,,,0.00,Wunderground v.1.15,2013-06-24 18:39:00,
2013-06-24 14:44:00,88.1,76.6,29.96,East,95,3.0,3.0,69,0.00,,,0.00,Wunderground v.1.15,2013-06-24 18:44:00,
2013-06-24 14:50:00,87.9,76.0,29.95,SSE,165,0.0,1.0,68,0.00,,,0.00,Wunderground v.1.15,2013-06-24 18:50:00,
2013-06-24 14:55:00,87.7,75.8,29.95,South,183,0.0,3.0,68,0.00,,,0.00,Wunderground v.1.15,2013-06-24 18:55:00,
2013-06-24 15:00:00,87.7,75.8,29.95,North,360,1.0,1.0,68,0.00,,,0.00,Wunderground v.1.15,2013-06-24 19:00:00,
2013-06-24 15:06:00,87.6,75.3,29.95,SSE,149,0.0,5.0,67,0.00,,,0.00,Wunderground v.1.15,2013-06-24 19:06:00,
2013-06-24 15:11:00,87.4,75.5,29.94,NNW,330,3.0,3.0,68,0.00,,,0.00,Wunderground v.1.15,2013-06-24 19:11:00,
2013-06-24 15:16:00,87.2,74.9,29.94,SE,127,0.0,3.0,67,0.00,,,0.00,Wunderground v.1.15,2013-06-24 19:16:00,
2013-06-24 15:21:00,87.0,74.7,29.94,West,275,1.0,1.0,67,0.00,,,0.00,Wunderground v.1.15,2013-06-24 19:21:00,
2013-06-24 15:26:00,86.9,75.1,29.93,North,350,0.0,4.0,68,0.00,,,0.00,Wunderground v.1.15,2013-06-24 19:26:00,
2013-06-24 15:31:00,86.8,76.3,29.93,SSE,151,0.0,1.0,71,0.00,,,0.00,Wunderground v.1.15,2013-06-24 19:31:00,
2013-06-24 15:36:00,86.8,75.4,29.93,SSW,212,0.0,6.0,69,0.00,,,0.00,Wunderground v.1.15,2013-06-24 19:36:00,
2013-06-24 15:41:00,86.9,75.1,29.93,SSE,149,2.0,2.0,68,0.00,,,0.00,Wunderground v.1.15,2013-06-24 19:41:00,
2013-06-24 15:46:00,86.9,75.5,29.93,SSE,148,3.0,3.0,69,0.00,,,0.00,Wunderground v.1.15,2013-06-24 19:46:00,
2013-06-24 15:51:00,86.9,75.9,29.93,South,179,4.0,4.0,70,0.00,,,0.00,Wunderground v.1.15,2013-06-24 19:51:00,
2013-06-24 15:57:00,86.9,75.5,29.92,South,175,0.0,6.0,69,0.00,,,0.00,Wunderground v.1.15,2013-06-24 19:57:00,
2013-06-24 16:02:00,86.9,75.5,29.92,WNW,302,2.0,2.0,69,0.00,,,0.00,Wunderground v.1.15,2013-06-24 20:02:00,
2013-06-24 16:08:00,86.9,74.6,29.92,SSE,168,0.0,3.0,67,0.00,,,0.00,Wunderground v.1.15,2013-06-24 20:08:00,
2013-06-24 16:13:00,86.8,75.8,29.92,East,92,0.0,1.0,70,0.00,,,0.00,Wunderground v.1.15,2013-06-24 20:13:00,
2013-06-24 16:18:00,86.7,75.7,29.92,SSW,194,1.0,4.0,70,0.00,,,0.00,Wunderground v.1.15,2013-06-24 20:18:00,
2013-06-24 16:23:00,86.5,76.0,29.92,NE,54,2.0,4.0,71,0.00,,,0.00,Wunderground v.1.15,2013-06-24 20:23:00,
2013-06-24 16:28:00,86.4,75.9,29.92,NW,319,1.0,4.0,71,0.00,,,0.00,Wunderground v.1.15,2013-06-24 20:28:00,
2013-06-24 16:33:00,86.2,75.3,29.92,ENE,77,0.0,3.0,70,0.00,,,0.00,Wunderground v.1.15,2013-06-24 20:33:00,
2013-06-24 16:39:00,86.1,75.2,29.92,WNW,300,0.0,3.0,70,0.00,,,0.00,Wunderground v.1.15,2013-06-24 20:39:00,
2013-06-24 16:44:00,85.8,74.9,29.92,North,355,2.0,3.0,70,0.00,,,0.00,Wunderground v.1.15,2013-06-24 20:44:00,
2013-06-24 16:49:00,85.7,74.8,29.92,ENE,77,2.0,4.0,70,0.00,,,0.00,Wunderground v.1.15,2013-06-24 20:49:00,
2013-06-24 16:54:00,85.6,74.7,29.92,SSW,197,0.0,3.0,70,0.00,,,0.00,Wunderground v.1.15,2013-06-24 20:54:00,
2013-06-24 16:59:00,85.5,75.0,29.92,WSW,239,0.0,4.0,71,0.00,,,0.00,Wunderground v.1.15,2013-06-24 20:59:00,
2013-06-24 17:04:00,85.4,74.5,29.92,WNW,286,0.0,5.0,70,0.00,,,0.00,Wunderground v.1.15,2013-06-24 21:04:00,
2013-06-24 17:10:00,85.4,75.3,29.92,NE,46,1.0,1.0,72,0.00,,,0.00,Wunderground v.1.15,2013-06-24 21:10:00,
2013-06-24 17:15:00,85.0,75.0,29.92,South,176,2.0,5.0,72,0.00,,,0.00,Wunderground v.1.15,2013-06-24 21:15:00,
2013-06-24 17:20:00,84.5,74.5,29.92,SW,223,0.0,1.0,72,0.00,,,0.00,Wunderground v.1.15,2013-06-24 21:20:00,
2013-06-24 17:26:00,84.1,74.5,29.91,ENE,63,0.0,1.0,73,0.00,,,0.00,Wunderground v.1.15,2013-06-24 21:26:00,
2013-06-24 17:31:00,83.8,74.6,29.91,SSE,157,0.0,0.0,74,0.00,,,0.00,Wunderground v.1.15,2013-06-24 21:31:00,
2013-06-24 17:36:00,83.6,74.4,29.91,SSE,157,0.0,1.0,74,0.00,,,0.00,Wunderground v.1.15,2013-06-24 21:36:00,
2013-06-24 17:42:00,83.4,74.6,29.91,SSE,156,0.0,0.0,75,0.00,,,0.00,Wunderground v.1.15,2013-06-24 21:42:00,
2013-06-24 17:47:00,83.2,74.4,29.91,West,266,0.0,1.0,75,0.00,,,0.00,Wunderground v.1.15,2013-06-24 21:47:00,
2013-06-24 17:53:00,83.0,74.3,29.91,West,266,0.0,0.0,75,0.00,,,0.00,Wunderground v.1.15,2013-06-24 21:53:00,
2013-06-24 17:58:00,82.9,74.6,29.91,West,267,0.0,0.0,76,0.00,,,0.00,Wunderground v.1.15,2013-06-24 21:58:00,
2013-06-24 18:03:00,82.7,74.4,29.91,West,267,0.0,0.0,76,0.00,,,0.00,Wunderground v.1.15,2013-06-24 22:03:00,
2013-06-24 18:08:00,82.5,74.6,29.91,West,267,0.0,0.0,77,0.00,,,0.00,Wunderground v.1.15,2013-06-24 22:08:00,
2013-06-24 18:14:00,82.4,75.2,29.91,West,267,0.0,0.0,79,0.00,,,0.00,Wunderground v.1.15,2013-06-24 22:14:00,
2013-06-24 18:19:00,82.2,75.0,29.92,West,267,0.0,0.0,79,0.00,,,0.00,Wunderground v.1.15,2013-06-24 22:19:00,
2013-06-24 18:24:00,82.1,74.6,29.92,SSW,194,0.0,2.0,78,0.00,,,0.00,Wunderground v.1.15,2013-06-24 22:24:00,
2013-06-24 18:29:00,82.1,74.9,29.93,West,265,1.0,2.0,79,0.00,,,0.00,Wunderground v.1.15,2013-06-24 22:29:00,
2013-06-24 18:34:00,82.0,74.8,29.92,South,187,3.0,3.0,79,0.00,,,0.00,Wunderground v.1.15,2013-06-24 22:34:00,
2013-06-24 18:39:00,81.9,74.4,29.92,SSE,165,0.0,3.0,78,0.00,,,0.00,Wunderground v.1.15,2013-06-24 22:39:00,
2013-06-24 18:44:00,81.9,74.0,29.92,South,171,0.0,3.0,77,0.00,,,0.00,Wunderground v.1.15,2013-06-24 22:44:00,
2013-06-24 18:50:00,81.9,74.0,29.92,SSW,194,0.0,3.0,77,0.00,,,0.00,Wunderground v.1.15,2013-06-24 22:50:00,
2013-06-24 18:55:00,81.9,74.0,29.92,ESE,115,0.0,4.0,77,0.00,,,0.00,Wunderground v.1.15,2013-06-24 22:55:00,
2013-06-24 19:00:00,81.9,74.4,29.91,SSW,205,0.0,0.0,78,0.00,,,0.00,Wunderground v.1.15,2013-06-24 23:00:00,
2013-06-24 19:05:00,81.8,74.3,29.92,NNW,331,0.0,3.0,78,0.00,,,0.00,Wunderground v.1.15,2013-06-24 23:05:00,
2013-06-24 19:10:00,81.7,74.2,29.91,ESE,113,2.0,2.0,78,0.00,,,0.00,Wunderground v.1.15,2013-06-24 23:10:00,
2013-06-24 19:15:00,81.6,74.1,29.92,WSW,239,2.0,3.0,78,0.00,,,0.00,Wunderground v.1.15,2013-06-24 23:15:00,
2013-06-24 19:21:00,81.6,74.1,29.92,South,184,0.0,2.0,78,0.00,,,0.00,Wunderground v.1.15,2013-06-24 23:21:00,
2013-06-24 19:26:00,81.5,74.4,29.92,SSW,202,0.0,2.0,79,0.00,,,0.00,Wunderground v.1.15,2013-06-24 23:26:00,
2013-06-24 19:31:00,81.4,73.9,29.92,East,101,0.0,0.0,78,0.00,,,0.00,Wunderground v.1.15,2013-06-24 23:31:00,
2013-06-24 19:36:00,81.2,73.7,29.92,SW,219,0.0,5.0,78,0.00,,,0.00,Wunderground v.1.15,2013-06-24 23:36:00,
2013-06-24 19:41:00,81.0,73.9,29.93,SE,137,2.0,2.0,79,0.00,,,0.00,Wunderground v.1.15,2013-06-24 23:41:00,
2013-06-24 19:47:00,80.7,73.6,29.93,NNE,27,0.0,2.0,79,0.00,,,0.00,Wunderground v.1.15,2013-06-24 23:47:00,
2013-06-24 19:52:00,80.4,73.7,29.93,ENE,73,0.0,1.0,80,0.00,,,0.00,Wunderground v.1.15,2013-06-24 23:52:00,
2013-06-24 19:57:00,80.1,73.4,29.93,NW,321,0.0,5.0,80,0.00,,,0.00,Wunderground v.1.15,2013-06-24 23:57:00,
2013-06-24 20:02:00,79.8,73.1,29.92,East,83,0.0,0.0,80,0.00,,,0.00,Wunderground v.1.15,2013-06-25 00:02:00,
2013-06-24 20:07:00,79.6,73.3,29.93,East,82,0.0,0.0,81,0.00,,,0.00,Wunderground v.1.15,2013-06-25 00:07:00,
2013-06-24 20:12:00,79.3,73.0,29.92,East,83,0.0,1.0,81,0.00,,,0.00,Wunderground v.1.15,2013-06-25 00:12:00,
2013-06-24 20:17:00,79.1,73.1,29.93,East,83,0.0,1.0,82,0.00,,,0.00,Wunderground v.1.15,2013-06-25 00:17:00,
2013-06-24 20:22:00,78.8,72.8,29.93,East,83,0.0,0.0,82,0.00,,,0.00,Wunderground v.1.15,2013-06-25 00:22:00,
2013-06-24 20:27:00,78.6,73.0,29.93,SE,143,0.0,2.0,83,0.00,,,0.00,Wunderground v.1.15,2013-06-25 00:27:00,
2013-06-24 20:32:00,78.5,72.2,29.94,West,277,0.0,2.0,81,0.00,,,0.00,Wunderground v.1.15,2013-06-25 00:32:00,
2013-06-24 20:37:00,78.4,71.0,29.94,ENE,65,2.0,5.0,78,0.00,,,0.00,Wunderground v.1.15,2013-06-25 00:37:00,
2013-06-24 20:42:00,78.4,69.4,29.94,ENE,65,0.0,1.0,74,0.00,,,0.00,Wunderground v.1.15,2013-06-25 00:42:00,
2013-06-24 20:48:00,78.3,69.7,29.95,ESE,109,0.0,1.0,75,0.00,,,0.00,Wunderground v.1.15,2013-06-25 00:48:00,
2013-06-24 20:53:00,78.3,72.0,29.95,ESE,109,0.0,0.0,81,0.00,,,0.00,Wunderground v.1.15,2013-06-25 00:53:00,
2013-06-24 20:58:00,78.0,70.6,29.95,ENE,65,0.0,1.0,78,0.00,,,0.00,Wunderground v.1.15,2013-06-25 00:58:00,
2013-06-24 21:03:00,77.8,70.8,29.95,ENE,65,0.0,0.0,79,0.00,,,0.00,Wunderground v.1.15,2013-06-25 01:03:00,
2013-06-24 21:08:00,77.5,69.7,29.96,ENE,65,0.0,0.0,77,0.00,,,0.00,Wunderground v.1.15,2013-06-25 01:08:00,
2013-06-24 21:13:00,77.1,68.6,29.96,ENE,58,0.0,0.0,75,0.00,,,0.00,Wunderground v.1.15,2013-06-25 01:13:00,
2013-06-24 21:19:00,76.9,68.4,29.96,ENE,58,0.0,1.0,75,0.00,,,0.00,Wunderground v.1.15,2013-06-25 01:19:00,
2013-06-24 21:24:00,76.8,69.0,29.96,NE,38,1.0,4.0,77,0.00,,,0.00,Wunderground v.1.15,2013-06-25 01:24:00,
2013-06-24 21:29:00,76.7,68.6,29.96,NE,41,0.0,4.0,76,0.00,,,0.00,Wunderground v.1.15,2013-06-25 01:29:00,
2013-06-24 21:34:00,76.5,69.1,29.96,ENE,66,0.0,2.0,78,0.00,,,0.00,Wunderground v.1.15,2013-06-25 01:34:00,
2013-06-24 21:40:00,76.4,69.0,29.96,ENE,69,0.0,2.0,78,0.00,,,0.00,Wunderground v.1.15,2013-06-25 01:40:00,
2013-06-24 21:45:00,76.4,69.4,29.96,ENE,73,0.0,0.0,79,0.00,,,0.00,Wunderground v.1.15,2013-06-25 01:45:00,
2013-06-24 21:50:00,76.2,69.6,29.96,ENE,73,0.0,1.0,80,0.00,,,0.00,Wunderground v.1.15,2013-06-25 01:50:00,
2013-06-24 21:55:00,76.1,69.5,29.96,SE,130,0.0,2.0,80,0.00,,,0.00,Wunderground v.1.15,2013-06-25 01:55:00,
2013-06-24 22:00:00,76.0,69.7,29.96,SE,130,0.0,0.0,81,0.00,,,0.00,Wunderground v.1.15,2013-06-25 02:00:00,
2013-06-24 22:05:00,75.8,69.2,29.96,SE,130,0.0,0.0,80,0.00,,,0.00,Wunderground v.1.15,2013-06-25 02:05:00,
2013-06-24 22:11:00,75.5,68.9,29.95,SE,130,0.0,0.0,80,0.00,,,0.00,Wunderground v.1.15,2013-06-25 02:11:00,
2013-06-24 22:16:00,75.4,68.8,29.96,SE,130,0.0,0.0,80,0.00,,,0.00,Wunderground v.1.15,2013-06-25 02:16:00,
2013-06-24 22:21:00,75.2,69.0,29.96,SE,130,0.0,0.0,81,0.00,,,0.00,Wunderground v.1.15,2013-06-25 02:21:00,
2013-06-24 22:27:00,74.9,68.3,29.95,SE,130,0.0,0.0,80,0.00,,,0.00,Wunderground v.1.15,2013-06-25 02:27:00,
2013-06-24 22:32:00,74.8,68.6,29.94,SE,130,0.0,0.0,81,0.00,,,0.00,Wunderground v.1.15,2013-06-25 02:32:00,
2013-06-24 22:37:00,74.6,68.4,29.94,SE,130,0.0,0.0,81,0.00,,,0.00,Wunderground v.1.15,2013-06-25 02:37:00,
2013-06-24 22:42:00,74.4,68.2,29.94,SE,130,0.0,0.0,81,0.00,,,0.00,Wunderground v.1.15,2013-06-25 02:42:00,
2013-06-24 22:47:00,74.1,67.9,29.94,SE,130,0.0,0.0,81,0.00,,,0.00,Wunderground v.1.15,2013-06-25 02:47:00,
2013-06-24 22:52:00,73.9,68.1,29.93,SE,130,0.0,0.0,82,0.00,,,0.00,Wunderground v.1.15,2013-06-25 02:52:00,
2013-06-24 22:57:00,73.7,67.9,29.94,SE,130,0.0,0.0,82,0.00,,,0.00,Wunderground v.1.15,2013-06-25 02:57:00,
2013-06-24 23:02:00,73.5,68.0,29.93,SE,130,0.0,0.0,83,0.00,,,0.00,Wunderground v.1.15,2013-06-25 03:02:00,
2013-06-24 23:08:00,73.2,67.7,29.93,SE,130,0.0,0.0,83,0.00,,,0.00,Wunderground v.1.15,2013-06-25 03:08:00,
2013-06-24 23:13:00,72.9,67.8,29.93,SE,130,0.0,0.0,84,0.00,,,0.00,Wunderground v.1.15,2013-06-25 03:13:00,
2013-06-24 23:18:00,72.6,67.8,29.93,SE,130,0.0,0.0,85,0.00,,,0.00,Wunderground v.1.15,2013-06-25 03:18:00,
2013-06-24 23:23:00,72.4,67.6,29.93,SE,130,0.0,0.0,85,0.00,,,0.00,Wunderground v.1.15,2013-06-25 03:23:00,
2013-06-24 23:28:00,72.2,67.4,29.94,SE,130,0.0,0.0,85,0.00,,,0.00,Wunderground v.1.15,2013-06-25 03:28:00,
2013-06-24 23:33:00,72.1,67.7,29.94,SE,130,0.0,0.0,86,0.00,,,0.00,Wunderground v.1.15,2013-06-25 03:33:00,
2013-06-24 23:39:00,71.8,67.7,29.94,SE,130,0.0,0.0,87,0.00,,,0.00,Wunderground v.1.15,2013-06-25 03:39:00,
2013-06-24 23:44:00,71.6,67.5,29.94,SE,130,0.0,0.0,87,0.00,,,0.00,Wunderground v.1.15,2013-06-25 03:44:00,
2013-06-24 23:49:00,71.3,67.2,29.94,SE,130,0.0,0.0,87,0.00,,,0.00,Wunderground v.1.15,2013-06-25 03:49:00,
2013-06-24 23:55:00,71.1,67.4,29.95,SE,130,0.0,0.0,88,0.00,,,0.00,Wunderground v.1.15,2013-06-25 03:55:00,